Time,TemperatureF,DewpointF,PressureIn,WindDirection,WindDirectionDegrees,WindSpeedMPH,WindSpeedGustMPH,Humidity,HourlyPrecipIn,Conditions,Clouds,dailyrainin,SoftwareType,DateUTC
2013-02-12 00:00:00,46.7,43.0,30.03,West,277,0.0,2.0,87,0.00,,,0.46,WeatherCatV1.11B39,2013-02-12 05:00:00,
2013-02-12 00:05:00,46.5,43.1,30.02,West,277,0.0,0.0,88,0.00,,,0.00,WeatherCatV1.11B39,2013-02-12 05:05:00,
2013-02-12 00:10:00,46.3,42.3,30.01,West,277,0.0,0.0,86,0.00,,,0.00,WeatherCatV1.11B39,2013-02-12 05:10:00,
2013-02-12 00:15:00,46.1,43.0,30.01,West,277,1.0,2.0,89,0.00,,,0.00,WeatherCatV1.11B39,2013-02-12 05:15:00,
2013-02-12 00:20:00,45.8,43.0,30.01,West,277,1.0,4.0,90,0.00,,,0.00,WeatherCatV1.11B39,2013-02-12 05:20:00,
2013-02-12 00:24:00,45.6,42.5,30.03,West,277,1.0,2.0,89,0.00,,,0.00,WeatherCatV1.11B39,2013-02-12 05:24:00,
2013-02-12 00:29:00,45.6,42.5,30.03,West,277,2.0,4.0,89,0.00,,,0.00,WeatherCatV1.11B39,2013-02-12 05:29:00,
2013-02-12 00:34:00,45.5,42.7,30.01,WNW,288,2.0,4.0,90,0.00,,,0.00,WeatherCatV1.11B39,2013-02-12 05:34:00,
2013-02-12 00:39:00,45.4,42.3,30.00,WNW,288,0.0,0.0,89,0.00,,,0.00,WeatherCatV1.11B39,2013-02-12 05:39:00,
2013-02-12 00:44:00,45.4,42.1,29.99,WNW,288,1.0,4.0,88,0.00,,,0.00,WeatherCatV1.11B39,2013-02-12 05:44:00,
2013-02-12 00:49:00,45.4,41.8,29.99,WNW,288,4.0,4.0,87,0.00,,,0.00,WeatherCatV1.11B39,2013-02-12 05:49:00,
2013-02-12 00:54:00,45.3,42.5,29.99,WNW,288,2.0,4.0,90,0.00,,,0.00,WeatherCatV1.11B39,2013-02-12 05:54:00,
2013-02-12 00:59:00,45.1,42.6,29.99,WNW,288,1.0,2.0,91,0.00,,,0.00,WeatherCatV1.11B39,2013-02-12 05:59:00,
2013-02-12 01:04:00,44.9,42.4,29.99,WNW,288,0.0,2.0,91,0.00,,,0.00,WeatherCatV1.11B39,2013-02-12 06:04:00,
2013-02-12 01:09:00,44.7,42.2,29.98,WNW,288,0.0,1.0,91,0.00,,,0.00,WeatherCatV1.11B39,2013-02-12 06:09:00,
2013-02-12 01:14:00,44.6,42.1,29.99,WNW,288,0.0,0.0,91,0.00,,,0.00,WeatherCatV1.11B39,2013-02-12 06:14:00,
2013-02-12 01:19:00,44.5,42.0,29.99,WNW,288,0.0,2.0,91,0.00,,,0.00,WeatherCatV1.11B39,2013-02-12 06:19:00,
2013-02-12 01:24:00,44.5,42.3,30.00,WNW,288,0.0,0.0,92,0.00,,,0.00,WeatherCatV1.11B39,2013-02-12 06:24:00,
2013-02-12 01:29:00,44.3,41.8,30.00,WNW,288,1.0,2.0,91,0.00,,,0.00,WeatherCatV1.11B39,2013-02-12 06:29:00,
2013-02-12 01:34:00,44.5,41.2,30.00,WNW,288,2.0,4.0,88,0.00,,,0.00,WeatherCatV1.11B39,2013-02-12 06:34:00,
2013-02-12 01:39:00,44.7,41.1,30.00,WNW,288,2.0,4.0,87,0.00,,,0.00,WeatherCatV1.11B39,2013-02-12 06:39:00,
2013-02-12 01:44:00,45.2,39.7,29.99,WNW,289,0.0,2.0,81,0.00,,,0.00,WeatherCatV1.11B39,2013-02-12 06:44:00,
2013-02-12 01:49:00,45.6,41.4,29.99,WNW,289,0.0,4.0,85,0.00,,,0.00,WeatherCatV1.11B39,2013-02-12 06:49:00,
2013-02-12 01:52:00,45.6,41.4,29.99,WNW,289,0.0,0.0,85,0.00,,,0.00,WeatherCatV1.11B39,2013-02-12 06:52:00,
2013-02-12 01:57:00,45.5,41.3,30.00,WNW,289,0.0,0.0,85,0.00,,,0.00,WeatherCatV1.11B39,2013-02-12 06:57:00,
2013-02-12 02:02:00,45.3,41.1,30.00,WNW,289,0.0,0.0,85,0.00,,,0.00,WeatherCatV1.11B39,2013-02-12 07:02:00,
2013-02-12 02:07:00,45.1,41.2,30.01,WNW,289,0.0,0.0,86,0.00,,,0.00,WeatherCatV1.11B39,2013-02-12 07:07:00,
2013-02-12 02:12:00,44.9,39.7,30.00,WNW,289,2.0,4.0,82,0.00,,,0.00,WeatherCatV1.11B39,2013-02-12 07:12:00,
2013-02-12 02:17:00,45.0,40.5,30.01,WNW,289,0.0,2.0,84,0.00,,,0.00,WeatherCatV1.11B39,2013-02-12 07:17:00,
2013-02-12 02:22:00,44.9,38.1,29.99,WNW,289,0.0,4.0,77,0.00,,,0.00,WeatherCatV1.11B39,2013-02-12 07:22:00,
2013-02-12 02:27:00,45.1,39.9,30.00,WNW,289,2.0,4.0,82,0.00,,,0.00,WeatherCatV1.11B39,2013-02-12 07:27:00,
2013-02-12 02:32:00,44.7,39.9,29.99,WNW,289,2.0,5.0,83,0.00,,,0.00,WeatherCatV1.11B39,2013-02-12 07:32:00,
2013-02-12 02:37:00,44.5,39.0,29.98,WNW,289,2.0,2.0,81,0.00,,,0.00,WeatherCatV1.11B39,2013-02-12 07:37:00,
2013-02-12 02:42:00,44.4,38.9,29.98,WNW,289,2.0,4.0,81,0.00,,,0.00,WeatherCatV1.11B39,2013-02-12 07:42:00,
2013-02-12 02:47:00,44.4,39.3,29.97,WNW,289,0.0,2.0,82,0.00,,,0.00,WeatherCatV1.11B39,2013-02-12 07:47:00,
2013-02-12 02:52:00,44.3,38.8,29.98,WNW,289,0.0,0.0,81,0.00,,,0.00,WeatherCatV1.11B39,2013-02-12 07:52:00,
2013-02-12 02:57:00,44.3,38.8,29.98,WNW,289,1.0,5.0,81,0.00,,,0.00,WeatherCatV1.11B39,2013-02-12 07:57:00,
2013-02-12 03:02:00,44.3,38.2,29.99,WNW,289,1.0,1.0,79,0.00,,,0.00,WeatherCatV1.11B39,2013-02-12 08:02:00,
2013-02-12 03:07:00,44.4,39.3,30.00,WNW,289,4.0,4.0,82,0.00,,,0.00,WeatherCatV1.11B39,2013-02-12 08:07:00,
2013-02-12 03:12:00,44.5,37.4,29.98,WNW,289,0.0,1.0,76,0.00,,,0.00,WeatherCatV1.11B39,2013-02-12 08:12:00,
2013-02-12 03:17:00,44.7,38.6,29.98,WNW,289,5.0,5.0,79,0.00,,,0.00,WeatherCatV1.11B39,2013-02-12 08:17:00,
2013-02-12 03:22:00,44.5,39.4,29.98,WNW,289,0.0,0.0,82,0.00,,,0.00,WeatherCatV1.11B39,2013-02-12 08:22:00,
2013-02-12 03:27:00,44.4,38.9,29.99,WNW,289,0.0,0.0,81,0.00,,,0.00,WeatherCatV1.11B39,2013-02-12 08:27:00,
2013-02-12 03:32:00,44.3,38.5,29.99,WNW,289,2.0,4.0,80,0.00,,,0.00,WeatherCatV1.11B39,2013-02-12 08:32:00,
2013-02-12 03:37:00,44.2,38.1,29.99,WNW,289,2.0,2.0,79,0.00,,,0.00,WeatherCatV1.11B39,2013-02-12 08:37:00,
2013-02-12 03:42:00,44.5,33.1,29.99,WNW,302,2.0,5.0,64,0.00,,,0.00,WeatherCatV1.11B39,2013-02-12 08:42:00,
2013-02-12 03:47:00,45.4,36.9,29.99,WNW,302,0.0,0.0,72,0.00,,,0.00,WeatherCatV1.11B39,2013-02-12 08:47:00,
2013-02-12 03:52:00,45.5,35.9,29.99,WNW,302,0.0,0.0,69,0.00,,,0.00,WeatherCatV1.11B39,2013-02-12 08:52:00,
2013-02-12 03:57:00,45.5,37.0,29.99,WNW,302,0.0,0.0,72,0.00,,,0.00,WeatherCatV1.11B39,2013-02-12 08:57:00,
2013-02-12 04:02:00,45.5,36.7,29.98,WNW,302,2.0,2.0,71,0.00,,,0.00,WeatherCatV1.11B39,2013-02-12 09:02:00,
2013-02-12 04:07:00,45.3,33.8,29.98,WNW,302,0.0,0.0,64,0.00,,,0.00,WeatherCatV1.11B39,2013-02-12 09:07:00,
2013-02-12 04:12:00,45.1,37.3,29.98,WNW,302,0.0,0.0,74,0.00,,,0.00,WeatherCatV1.11B39,2013-02-12 09:12:00,
2013-02-12 04:17:00,44.7,35.5,29.98,WNW,302,0.0,1.0,70,0.00,,,0.00,WeatherCatV1.11B39,2013-02-12 09:17:00,
2013-02-12 04:22:00,44.5,38.1,29.99,WNW,302,2.0,2.0,78,0.00,,,0.00,WeatherCatV1.11B39,2013-02-12 09:22:00,
2013-02-12 04:27:00,43.8,36.4,29.99,WNW,302,1.0,2.0,75,0.00,,,0.00,WeatherCatV1.11B39,2013-02-12 09:27:00,
2013-02-12 04:32:00,43.7,37.3,29.99,NW,306,0.0,5.0,78,0.00,,,0.00,WeatherCatV1.11B39,2013-02-12 09:32:00,
2013-02-12 04:37:00,43.6,36.2,29.99,NW,306,2.0,4.0,75,0.00,,,0.00,WeatherCatV1.11B39,2013-02-12 09:37:00,
2013-02-12 04:42:00,43.5,38.1,29.99,NW,306,2.0,4.0,81,0.00,,,0.00,WeatherCatV1.11B39,2013-02-12 09:42:00,
2013-02-12 04:47:00,43.1,36.4,29.98,NW,306,4.0,4.0,77,0.00,,,0.00,WeatherCatV1.11B39,2013-02-12 09:47:00,
2013-02-12 04:52:00,43.1,37.0,29.98,NW,306,0.0,2.0,79,0.00,,,0.00,WeatherCatV1.11B39,2013-02-12 09:52:00,
2013-02-12 04:57:00,43.1,38.0,29.98,NW,306,0.0,1.0,82,0.00,,,0.00,WeatherCatV1.11B39,2013-02-12 09:57:00,
2013-02-12 05:02:00,43.1,38.0,29.98,NW,306,2.0,2.0,82,0.00,,,0.00,WeatherCatV1.11B39,2013-02-12 10:02:00,
2013-02-12 05:07:00,42.8,36.1,29.98,NW,306,2.0,4.0,77,0.00,,,0.00,WeatherCatV1.11B39,2013-02-12 10:07:00,
2013-02-12 05:12:00,42.6,35.6,29.98,NW,306,2.0,2.0,76,0.00,,,0.00,WeatherCatV1.11B39,2013-02-12 10:12:00,
2013-02-12 05:17:00,42.5,34.8,29.98,NW,306,2.0,2.0,74,0.00,,,0.00,WeatherCatV1.11B39,2013-02-12 10:17:00,
2013-02-12 05:22:00,42.3,35.6,29.98,NW,306,4.0,5.0,77,0.00,,,0.00,WeatherCatV1.11B39,2013-02-12 10:22:00,
2013-02-12 05:27:00,42.1,34.8,29.98,NW,306,0.0,0.0,75,0.00,,,0.00,WeatherCatV1.11B39,2013-02-12 10:27:00,
2013-02-12 05:32:00,42.1,37.3,29.98,NW,306,0.0,0.0,83,0.00,,,0.00,WeatherCatV1.11B39,2013-02-12 10:32:00,
2013-02-12 05:37:00,41.9,36.8,29.99,NW,306,0.0,0.0,82,0.00,,,0.00,WeatherCatV1.11B39,2013-02-12 10:37:00,
2013-02-12 05:41:00,41.8,36.4,29.99,NW,306,0.0,0.0,81,0.00,,,0.00,WeatherCatV1.11B39,2013-02-12 10:41:00,
2013-02-12 05:46:00,42.0,32.6,29.97,NW,306,1.0,2.0,69,0.00,,,0.00,WeatherCatV1.11B39,2013-02-12 10:46:00,
2013-02-12 05:51:00,42.5,37.1,29.99,NW,306,0.0,0.0,81,0.00,,,0.00,WeatherCatV1.11B39,2013-02-12 10:51:00,
2013-02-12 05:56:00,42.2,37.7,30.01,NW,306,0.0,2.0,84,0.00,,,0.00,WeatherCatV1.11B39,2013-02-12 10:56:00,
2013-02-12 06:01:00,41.9,35.5,30.00,NW,306,0.0,0.0,78,0.00,,,0.00,WeatherCatV1.11B39,2013-02-12 11:01:00,
2013-02-12 06:06:00,42.0,35.3,30.00,NW,306,0.0,0.0,77,0.00,,,0.00,WeatherCatV1.11B39,2013-02-12 11:06:00,
2013-02-12 06:11:00,42.1,35.4,29.99,NW,306,1.0,2.0,77,0.00,,,0.00,WeatherCatV1.11B39,2013-02-12 11:11:00,
2013-02-12 06:16:00,42.2,37.1,30.00,NW,306,0.0,0.0,82,0.00,,,0.00,WeatherCatV1.11B39,2013-02-12 11:16:00,
2013-02-12 06:21:00,42.0,37.8,30.00,NW,306,0.0,1.0,85,0.00,,,0.00,WeatherCatV1.11B39,2013-02-12 11:21:00,
2013-02-12 06:26:00,41.6,37.4,30.01,NW,306,0.0,0.0,85,0.00,,,0.00,WeatherCatV1.11B39,2013-02-12 11:26:00,
2013-02-12 06:31:00,41.4,36.6,30.01,NW,306,0.0,0.0,83,0.00,,,0.00,WeatherCatV1.11B39,2013-02-12 11:31:00,
2013-02-12 06:36:00,41.4,36.6,30.01,NW,306,2.0,4.0,83,0.00,,,0.00,WeatherCatV1.11B39,2013-02-12 11:36:00,
2013-02-12 06:41:00,41.5,36.7,30.01,NW,306,0.0,0.0,83,0.00,,,0.00,WeatherCatV1.11B39,2013-02-12 11:41:00,
2013-02-12 06:46:00,41.6,36.8,30.01,NW,306,0.0,2.0,83,0.00,,,0.00,WeatherCatV1.11B39,2013-02-12 11:46:00,
2013-02-12 06:51:00,41.7,34.7,30.00,NW,306,1.0,2.0,76,0.00,,,0.00,WeatherCatV1.11B39,2013-02-12 11:51:00,
2013-02-12 06:56:00,42.0,33.3,30.00,NW,306,0.0,0.0,71,0.00,,,0.00,WeatherCatV1.11B39,2013-02-12 11:56:00,
2013-02-12 07:01:00,42.2,33.8,30.00,NW,306,0.0,0.0,72,0.00,,,0.00,WeatherCatV1.11B39,2013-02-12 12:01:00,
2013-02-12 07:06:00,42.3,35.0,30.00,NW,306,1.0,1.0,75,0.00,,,0.00,WeatherCatV1.11B39,2013-02-12 12:06:00,
2013-02-12 07:11:00,42.3,36.6,30.00,NW,306,1.0,2.0,80,0.00,,,0.00,WeatherCatV1.11B39,2013-02-12 12:11:00,
2013-02-12 07:16:00,42.1,35.1,30.01,NW,306,0.0,0.0,76,0.00,,,0.00,WeatherCatV1.11B39,2013-02-12 12:16:00,
2013-02-12 07:21:00,42.1,36.1,30.03,NW,306,2.0,2.0,79,0.00,,,0.00,WeatherCatV1.11B39,2013-02-12 12:21:00,
2013-02-12 07:26:00,41.9,37.7,30.03,NW,306,4.0,5.0,85,0.00,,,0.00,WeatherCatV1.11B39,2013-02-12 12:26:00,
2013-02-12 07:31:00,41.6,34.9,30.02,NW,304,5.0,6.0,77,0.00,,,0.00,WeatherCatV1.11B39,2013-02-12 12:31:00,
2013-02-12 07:36:00,42.2,33.1,30.02,NW,304,2.0,4.0,70,0.00,,,0.00,WeatherCatV1.11B39,2013-02-12 12:36:00,
2013-02-12 07:41:00,42.6,34.6,30.02,NW,304,1.0,2.0,73,0.00,,,0.00,WeatherCatV1.11B39,2013-02-12 12:41:00,
2013-02-12 07:46:00,42.8,34.4,30.03,NW,304,0.0,2.0,72,0.00,,,0.00,WeatherCatV1.11B39,2013-02-12 12:46:00,
2013-02-12 07:51:00,42.9,32.0,30.03,NW,304,0.0,4.0,65,0.00,,,0.00,WeatherCatV1.11B39,2013-02-12 12:51:00,
2013-02-12 07:56:00,43.0,32.8,30.04,NW,304,2.0,4.0,67,0.00,,,0.00,WeatherCatV1.11B39,2013-02-12 12:56:00,
2013-02-12 08:01:00,42.9,34.2,30.03,NW,304,1.0,2.0,71,0.00,,,0.00,WeatherCatV1.11B39,2013-02-12 13:01:00,
2013-02-12 08:06:00,42.9,34.2,30.03,NW,304,0.0,0.0,71,0.00,,,0.00,WeatherCatV1.11B39,2013-02-12 13:06:00,
2013-02-12 08:11:00,42.9,34.9,30.02,NW,304,2.0,4.0,73,0.00,,,0.00,WeatherCatV1.11B39,2013-02-12 13:11:00,
2013-02-12 08:16:00,43.0,36.3,30.02,NW,304,0.0,4.0,77,0.00,,,0.00,WeatherCatV1.11B39,2013-02-12 13:16:00,
2013-02-12 08:21:00,42.8,34.8,30.02,NW,304,1.0,2.0,73,0.00,,,0.00,WeatherCatV1.11B39,2013-02-12 13:21:00,
2013-02-12 08:26:00,42.8,36.1,30.03,NW,304,4.0,4.0,77,0.00,,,0.00,WeatherCatV1.11B39,2013-02-12 13:26:00,
2013-02-12 08:31:00,42.6,32.8,30.02,SW,234,1.0,2.0,68,0.00,,,0.00,WeatherCatV1.11B39,2013-02-12 13:31:00,
2013-02-12 08:36:00,42.7,32.5,30.02,SW,234,0.0,0.0,67,0.00,,,0.00,WeatherCatV1.11B39,2013-02-12 13:36:00,
2013-02-12 08:41:00,42.9,35.9,30.02,SW,234,0.0,0.0,76,0.00,,,0.00,WeatherCatV1.11B39,2013-02-12 13:41:00,
2013-02-12 08:46:00,42.9,33.1,30.01,SW,234,2.0,2.0,68,0.00,,,0.00,WeatherCatV1.11B39,2013-02-12 13:46:00,
2013-02-12 08:51:00,43.1,35.7,30.02,SW,234,2.0,2.0,75,0.00,,,0.00,WeatherCatV1.11B39,2013-02-12 13:51:00,
2013-02-12 08:56:00,43.1,35.0,30.01,SW,234,1.0,1.0,73,0.00,,,0.00,WeatherCatV1.11B39,2013-02-12 13:56:00,
2013-02-12 09:01:00,43.3,32.7,30.01,SW,234,0.0,1.0,66,0.00,,,0.00,WeatherCatV1.11B39,2013-02-12 14:01:00,
2013-02-12 09:06:00,43.8,36.7,30.01,SW,234,0.0,0.0,76,0.00,,,0.00,WeatherCatV1.11B39,2013-02-12 14:06:00,
2013-02-12 09:11:00,44.3,33.7,30.01,SW,234,0.0,2.0,66,0.00,,,0.00,WeatherCatV1.11B39,2013-02-12 14:11:00,
2013-02-12 09:16:00,45.1,33.7,30.01,SW,234,0.0,0.0,64,0.00,,,0.00,WeatherCatV1.11B39,2013-02-12 14:16:00,
2013-02-12 09:21:00,45.9,37.7,30.01,SW,234,0.0,2.0,73,0.00,,,0.00,WeatherCatV1.11B39,2013-02-12 14:21:00,
2013-02-12 09:26:00,46.5,34.6,30.01,SW,234,0.0,0.0,63,0.00,,,0.00,WeatherCatV1.11B39,2013-02-12 14:26:00,
2013-02-12 09:31:00,47.0,34.7,30.01,SW,234,0.0,0.0,62,0.00,,,0.00,WeatherCatV1.11B39,2013-02-12 14:31:00,
2013-02-12 09:36:00,47.4,35.0,30.00,SW,234,2.0,2.0,62,0.00,,,0.00,WeatherCatV1.11B39,2013-02-12 14:36:00,
2013-02-12 09:41:00,47.7,33.7,30.00,South,175,5.0,5.0,58,0.00,,,0.00,WeatherCatV1.11B39,2013-02-12 14:41:00,
2013-02-12 09:46:00,48.2,33.2,30.00,SSE,152,4.0,5.0,56,0.00,,,0.00,WeatherCatV1.11B39,2013-02-12 14:46:00,
2013-02-12 09:51:00,48.8,33.8,30.00,SE,137,2.0,2.0,56,0.00,,,0.00,WeatherCatV1.11B39,2013-02-12 14:51:00,
2013-02-12 09:56:00,49.5,33.6,30.00,SE,136,0.0,2.0,54,0.00,,,0.00,WeatherCatV1.11B39,2013-02-12 14:56:00,
2013-02-12 10:01:00,49.7,32.8,30.01,SSE,155,5.0,6.0,52,0.00,,,0.00,WeatherCatV1.11B39,2013-02-12 15:01:00,
2013-02-12 10:06:00,49.7,33.3,30.01,SSE,147,2.0,5.0,53,0.00,,,0.00,WeatherCatV1.11B39,2013-02-12 15:06:00,
2013-02-12 10:11:00,49.9,32.5,30.01,SE,139,1.0,6.0,51,0.00,,,0.00,WeatherCatV1.11B39,2013-02-12 15:11:00,
2013-02-12 10:16:00,50.3,32.9,29.99,SE,141,2.0,4.0,51,0.00,,,0.00,WeatherCatV1.11B39,2013-02-12 15:16:00,
2013-02-12 10:21:00,50.7,32.7,29.99,SE,139,6.0,6.0,50,0.00,,,0.00,WeatherCatV1.11B39,2013-02-12 15:21:00,
2013-02-12 10:26:00,51.0,32.5,29.99,SE,131,6.0,7.0,49,0.00,,,0.00,WeatherCatV1.11B39,2013-02-12 15:26:00,
2013-02-12 10:31:00,51.4,32.9,29.99,SSE,150,6.0,6.0,49,0.00,,,0.00,WeatherCatV1.11B39,2013-02-12 15:31:00,
2013-02-12 10:36:00,51.9,33.8,30.00,SE,144,5.0,7.0,50,0.00,,,0.00,WeatherCatV1.11B39,2013-02-12 15:36:00,
2013-02-12 10:41:00,52.4,32.2,30.01,SE,132,7.0,11.0,46,0.00,,,0.00,WeatherCatV1.11B39,2013-02-12 15:41:00,
2013-02-12 10:45:00,52.7,35.6,30.00,SE,142,5.0,6.0,52,0.00,,,0.00,WeatherCatV1.11B39,2013-02-12 15:45:00,
2013-02-12 10:50:00,53.2,37.0,30.00,SE,126,4.0,5.0,54,0.00,,,0.00,WeatherCatV1.11B39,2013-02-12 15:50:00,
2013-02-12 10:55:00,53.7,35.5,30.00,ESE,112,4.0,8.0,50,0.00,,,0.00,WeatherCatV1.11B39,2013-02-12 15:55:00,
2013-02-12 11:00:00,53.7,34.5,30.00,SE,144,7.0,9.0,48,0.00,,,0.00,WeatherCatV1.11B39,2013-02-12 16:00:00,
2013-02-12 11:05:00,53.6,33.9,30.00,SE,128,6.0,9.0,47,0.00,,,0.00,WeatherCatV1.11B39,2013-02-12 16:05:00,
2013-02-12 11:10:00,53.9,33.6,30.00,SE,143,5.0,7.0,46,0.00,,,0.00,WeatherCatV1.11B39,2013-02-12 16:10:00,
2013-02-12 11:15:00,54.1,30.9,30.00,SE,142,2.0,6.0,41,0.00,,,0.00,WeatherCatV1.11B39,2013-02-12 16:15:00,
2013-02-12 11:20:00,54.3,31.1,30.00,SE,138,5.0,8.0,41,0.00,,,0.00,WeatherCatV1.11B39,2013-02-12 16:20:00,
2013-02-12 11:25:00,54.4,30.0,30.00,SE,140,2.0,4.0,39,0.00,,,0.00,WeatherCatV1.11B39,2013-02-12 16:25:00,
2013-02-12 11:30:00,54.5,28.8,29.99,WSW,248,2.0,4.0,37,0.00,,,0.00,WeatherCatV1.11B39,2013-02-12 16:30:00,
2013-02-12 11:35:00,54.6,28.2,30.00,WSW,248,1.0,1.0,36,0.00,,,0.00,WeatherCatV1.11B39,2013-02-12 16:35:00,
2013-02-12 11:40:00,54.8,27.7,30.00,WSW,248,0.0,0.0,35,0.00,,,0.00,WeatherCatV1.11B39,2013-02-12 16:40:00,
2013-02-12 11:45:00,55.0,27.9,30.00,WSW,248,0.0,1.0,35,0.00,,,0.00,WeatherCatV1.11B39,2013-02-12 16:45:00,
2013-02-12 11:50:00,55.1,28.6,30.00,WSW,248,0.0,0.0,36,0.00,,,0.00,WeatherCatV1.11B39,2013-02-12 16:50:00,
2013-02-12 11:55:00,55.2,26.6,30.00,SSE,158,5.0,6.0,33,0.00,,,0.00,WeatherCatV1.11B39,2013-02-12 16:55:00,
2013-02-12 12:00:00,55.1,25.0,30.00,SSE,158,5.0,5.0,31,0.00,,,0.00,WeatherCatV1.11B39,2013-02-12 17:00:00,
2013-02-12 12:05:00,55.1,26.5,30.00,SSE,158,2.0,5.0,33,0.00,,,0.00,WeatherCatV1.11B39,2013-02-12 17:05:00,
2013-02-12 12:10:00,55.1,25.8,29.99,SSE,158,5.0,5.0,32,0.00,,,0.00,WeatherCatV1.11B39,2013-02-12 17:10:00,
2013-02-12 12:15:00,55.2,26.6,29.99,SSE,158,1.0,4.0,33,0.00,,,0.00,WeatherCatV1.11B39,2013-02-12 17:15:00,
2013-02-12 12:20:00,55.3,26.7,29.99,SSE,158,0.0,0.0,33,0.00,,,0.00,WeatherCatV1.11B39,2013-02-12 17:20:00,
2013-02-12 12:25:00,55.5,26.9,29.99,SSE,158,0.0,0.0,33,0.00,,,0.00,WeatherCatV1.11B39,2013-02-12 17:25:00,
2013-02-12 12:30:00,55.7,25.5,29.98,SSE,158,0.0,0.0,31,0.00,,,0.00,WeatherCatV1.11B39,2013-02-12 17:30:00,
2013-02-12 12:35:00,55.9,27.2,29.98,SSE,158,0.0,0.0,33,0.00,,,0.00,WeatherCatV1.11B39,2013-02-12 17:35:00,
2013-02-12 12:40:00,56.1,27.4,29.98,SSE,158,0.0,0.0,33,0.00,,,0.00,WeatherCatV1.11B39,2013-02-12 17:40:00,
2013-02-12 12:45:00,56.3,27.6,29.98,SSE,158,0.0,0.0,33,0.00,,,0.00,WeatherCatV1.11B39,2013-02-12 17:45:00,
2013-02-12 12:50:00,56.5,28.5,29.98,SSE,158,0.0,0.0,34,0.00,,,0.00,WeatherCatV1.11B39,2013-02-12 17:50:00,
2013-02-12 12:55:00,56.6,29.3,29.98,SSE,158,0.0,0.0,35,0.00,,,0.00,WeatherCatV1.11B39,2013-02-12 17:55:00,
2013-02-12 13:00:00,56.6,29.3,29.98,SSE,158,0.0,0.0,35,0.00,,,0.00,WeatherCatV1.11B39,2013-02-12 18:00:00,
2013-02-12 13:05:00,56.7,28.6,29.98,SSE,158,0.0,0.0,34,0.00,,,0.00,WeatherCatV1.11B39,2013-02-12 18:05:00,
2013-02-12 13:10:00,56.7,30.0,29.98,SSE,158,0.0,0.0,36,0.00,,,0.00,WeatherCatV1.11B39,2013-02-12 18:10:00,
2013-02-12 13:15:00,56.6,29.3,29.98,SSE,158,1.0,1.0,35,0.00,,,0.00,WeatherCatV1.11B39,2013-02-12 18:15:00,
2013-02-12 13:20:00,56.4,27.7,29.98,SSE,158,0.0,1.0,33,0.00,,,0.00,WeatherCatV1.11B39,2013-02-12 18:20:00,
2013-02-12 13:25:00,56.4,27.7,29.97,SSE,158,4.0,4.0,33,0.00,,,0.00,WeatherCatV1.11B39,2013-02-12 18:25:00,
2013-02-12 13:30:00,56.3,28.3,29.96,SSE,157,0.0,0.0,34,0.00,,,0.00,WeatherCatV1.11B39,2013-02-12 18:30:00,
2013-02-12 13:35:00,56.3,28.3,29.95,SSE,157,0.0,1.0,34,0.00,,,0.00,WeatherCatV1.11B39,2013-02-12 18:35:00,
2013-02-12 13:40:00,56.4,27.7,29.95,SSE,157,0.0,0.0,33,0.00,,,0.00,WeatherCatV1.11B39,2013-02-12 18:40:00,
2013-02-12 13:45:00,56.6,28.6,29.95,SSE,157,0.0,0.0,34,0.00,,,0.00,WeatherCatV1.11B39,2013-02-12 18:45:00,
2013-02-12 13:50:00,56.6,29.3,29.94,SSE,152,0.0,4.0,35,0.00,,,0.00,WeatherCatV1.11B39,2013-02-12 18:50:00,
2013-02-12 13:55:00,56.5,28.5,29.95,SE,136,0.0,0.0,34,0.00,,,0.00,WeatherCatV1.11B39,2013-02-12 18:55:00,
2013-02-12 14:00:00,56.4,29.8,29.94,SE,136,4.0,5.0,36,0.00,,,0.00,WeatherCatV1.11B39,2013-02-12 19:00:00,
2013-02-12 14:05:00,56.3,29.0,29.94,ESE,113,0.0,4.0,35,0.00,,,0.00,WeatherCatV1.11B39,2013-02-12 19:05:00,
2013-02-12 14:10:00,56.2,29.6,29.94,ESE,113,1.0,6.0,36,0.00,,,0.00,WeatherCatV1.11B39,2013-02-12 19:10:00,
2013-02-12 14:15:00,56.0,30.8,29.94,East,88,0.0,2.0,38,0.00,,,0.00,WeatherCatV1.11B39,2013-02-12 19:15:00,
2013-02-12 14:20:00,56.0,29.4,29.93,East,88,2.0,3.0,36,0.00,,,0.00,WeatherCatV1.11B39,2013-02-12 19:20:00,
2013-02-12 14:25:00,55.9,30.0,29.93,East,88,2.0,3.0,37,0.00,,,0.00,WeatherCatV1.11B39,2013-02-12 19:25:00,
2013-02-12 14:30:00,55.8,30.6,29.93,East,88,1.0,2.0,38,0.00,,,0.00,WeatherCatV1.11B39,2013-02-12 19:30:00,
2013-02-12 14:35:00,55.8,30.6,29.94,East,88,0.0,0.0,38,0.00,,,0.00,WeatherCatV1.11B39,2013-02-12 19:35:00,
2013-02-12 14:40:00,55.7,30.5,29.94,East,88,0.0,0.0,38,0.00,,,0.00,WeatherCatV1.11B39,2013-02-12 19:40:00,
2013-02-12 14:45:00,55.7,34.7,29.94,East,88,0.0,0.0,45,0.00,,,0.00,WeatherCatV1.11B39,2013-02-12 19:45:00,
2013-02-12 14:50:00,55.6,37.8,29.94,East,88,0.0,0.0,51,0.00,,,0.00,WeatherCatV1.11B39,2013-02-12 19:50:00,
2013-02-12 14:55:00,55.4,31.5,29.94,East,88,0.0,0.0,40,0.00,,,0.00,WeatherCatV1.11B39,2013-02-12 19:55:00,
2013-02-12 15:00:00,55.4,33.9,29.94,East,88,0.0,0.0,44,0.00,,,0.00,WeatherCatV1.11B39,2013-02-12 20:00:00,
2013-02-12 15:05:00,55.3,33.8,29.95,East,88,1.0,2.0,44,0.00,,,0.00,WeatherCatV1.11B39,2013-02-12 20:05:00,
2013-02-12 15:10:00,55.1,37.3,29.95,East,88,0.0,0.0,51,0.00,,,0.00,WeatherCatV1.11B39,2013-02-12 20:10:00,
2013-02-12 15:15:00,55.0,37.7,29.95,East,88,0.0,0.0,52,0.00,,,0.00,WeatherCatV1.11B39,2013-02-12 20:15:00,
2013-02-12 15:20:00,54.7,41.1,29.95,East,88,0.0,2.0,60,0.00,,,0.00,WeatherCatV1.11B39,2013-02-12 20:20:00,
2013-02-12 15:25:00,54.2,35.5,29.95,East,88,0.0,0.0,49,0.00,,,0.00,WeatherCatV1.11B39,2013-02-12 20:25:00,
2013-02-12 15:30:00,54.1,39.7,29.95,East,88,0.0,0.0,58,0.00,,,0.01,WeatherCatV1.11B39,2013-02-12 20:30:00,
2013-02-12 15:35:00,54.0,42.9,29.95,East,88,1.0,1.0,66,0.00,,,0.01,WeatherCatV1.11B39,2013-02-12 20:35:00,
2013-02-12 15:40:00,53.5,39.5,29.94,East,88,0.0,0.0,59,0.00,,,0.01,WeatherCatV1.11B39,2013-02-12 20:40:00,
2013-02-12 15:44:00,53.3,43.4,29.94,East,88,0.0,0.0,69,0.00,,,0.01,WeatherCatV1.11B39,2013-02-12 20:44:00,
2013-02-12 15:49:00,52.9,40.7,29.93,East,88,0.0,0.0,63,0.00,,,0.01,WeatherCatV1.11B39,2013-02-12 20:49:00,
2013-02-12 15:54:00,52.5,43.7,29.93,East,88,0.0,0.0,72,0.00,,,0.01,WeatherCatV1.11B39,2013-02-12 20:54:00,
2013-02-12 15:59:00,52.2,43.8,29.92,East,88,0.0,0.0,73,0.00,,,0.01,WeatherCatV1.11B39,2013-02-12 20:59:00,
2013-02-12 16:04:00,52.1,44.8,29.92,East,88,0.0,0.0,76,0.00,,,0.01,WeatherCatV1.11B39,2013-02-12 21:04:00,
2013-02-12 16:09:00,52.0,44.3,29.91,East,88,0.0,1.0,75,0.00,,,0.01,WeatherCatV1.11B39,2013-02-12 21:09:00,
2013-02-12 16:14:00,51.6,43.2,29.92,East,88,2.0,2.0,73,0.00,,,0.02,WeatherCatV1.11B39,2013-02-12 21:14:00,
2013-02-12 16:19:00,51.0,44.0,29.93,East,88,1.0,2.0,77,0.00,,,0.02,WeatherCatV1.11B39,2013-02-12 21:19:00,
2013-02-12 16:24:00,50.3,42.7,29.93,East,88,2.0,3.0,75,0.00,,,0.02,WeatherCatV1.11B39,2013-02-12 21:24:00,
2013-02-12 16:29:00,49.8,42.2,29.93,East,88,2.0,2.0,75,0.00,,,0.02,WeatherCatV1.11B39,2013-02-12 21:29:00,
2013-02-12 16:34:00,49.6,44.0,29.91,ENE,78,3.0,3.0,81,0.00,,,0.02,WeatherCatV1.11B39,2013-02-12 21:34:00,
2013-02-12 16:39:00,49.4,44.1,29.89,NE,40,2.0,4.0,82,0.00,,,0.03,WeatherCatV1.11B39,2013-02-12 21:39:00,
2013-02-12 16:44:00,49.2,44.9,29.90,NE,40,1.0,2.0,85,0.00,,,0.03,WeatherCatV1.11B39,2013-02-12 21:44:00,
2013-02-12 16:49:00,48.8,43.9,29.88,NE,40,3.0,3.0,83,0.00,,,0.03,WeatherCatV1.11B39,2013-02-12 21:49:00,
2013-02-12 16:54:00,48.6,44.0,29.87,WNW,302,6.0,6.0,84,0.00,,,0.03,WeatherCatV1.11B39,2013-02-12 21:54:00,
2013-02-12 16:59:00,48.5,45.1,29.85,WNW,302,1.0,5.0,88,0.00,,,0.03,WeatherCatV1.11B39,2013-02-12 21:59:00,
2013-02-12 17:04:00,48.5,45.1,29.86,WNW,302,1.0,2.0,88,0.00,,,0.03,WeatherCatV1.11B39,2013-02-12 22:04:00,
2013-02-12 17:09:00,48.4,44.7,29.86,WNW,302,2.0,4.0,87,0.00,,,0.03,WeatherCatV1.11B39,2013-02-12 22:09:00,
2013-02-12 17:14:00,48.3,44.6,29.86,WNW,302,2.0,4.0,87,0.00,,,0.03,WeatherCatV1.11B39,2013-02-12 22:14:00,
2013-02-12 17:19:00,48.2,44.5,29.88,WNW,302,0.0,1.0,87,0.00,,,0.03,WeatherCatV1.11B39,2013-02-12 22:19:00,
2013-02-12 17:24:00,48.2,44.5,29.84,WNW,302,1.0,4.0,87,0.00,,,0.03,WeatherCatV1.11B39,2013-02-12 22:24:00,
2013-02-12 17:29:00,48.3,45.2,29.84,WNW,302,1.0,4.0,89,0.00,,,0.03,WeatherCatV1.11B39,2013-02-12 22:29:00,
2013-02-12 17:34:00,48.2,44.5,29.82,WNW,302,0.0,1.0,87,0.00,,,0.03,WeatherCatV1.11B39,2013-02-12 22:34:00,
2013-02-12 17:39:00,48.2,44.8,29.82,WNW,302,0.0,4.0,88,0.00,,,0.03,WeatherCatV1.11B39,2013-02-12 22:39:00,
2013-02-12 17:44:00,48.2,42.6,29.84,West,281,5.0,6.0,81,0.00,,,0.03,WeatherCatV1.11B39,2013-02-12 22:44:00,
2013-02-12 17:49:00,48.4,43.2,29.88,West,280,4.0,5.0,82,0.00,,,0.03,WeatherCatV1.11B39,2013-02-12 22:49:00,
2013-02-12 17:54:00,48.5,42.3,29.91,West,280,1.0,1.0,79,0.00,,,0.03,WeatherCatV1.11B39,2013-02-12 22:54:00,
2013-02-12 17:56:00,48.6,42.4,29.91,West,280,2.0,2.0,79,0.00,,,0.03,WeatherCatV1.11B39,2013-02-12 22:56:00,
2013-02-12 18:01:00,48.6,43.4,29.90,WNW,282,0.0,2.0,82,0.00,,,0.04,WeatherCatV1.11B39,2013-02-12 23:01:00,
2013-02-12 18:06:00,48.5,43.6,29.90,WNW,282,0.0,0.0,83,0.00,,,0.04,WeatherCatV1.11B39,2013-02-12 23:06:00,
2013-02-12 18:11:00,48.4,44.4,29.90,WNW,282,0.0,0.0,86,0.06,,,0.05,WeatherCatV1.11B39,2013-02-12 23:11:00,
2013-02-12 18:16:00,48.1,44.1,29.90,WNW,282,0.0,0.0,86,0.06,,,0.05,WeatherCatV1.11B39,2013-02-12 23:16:00,
2013-02-12 18:21:00,47.6,44.2,29.91,WNW,282,2.0,4.0,88,0.05,,,0.05,WeatherCatV1.11B39,2013-02-12 23:21:00,
2013-02-12 18:26:00,47.1,43.7,29.91,WNW,282,2.0,4.0,88,0.00,,,0.05,WeatherCatV1.11B39,2013-02-12 23:26:00,
2013-02-12 18:31:00,46.8,43.7,29.90,WNW,282,1.0,2.0,89,0.00,,,0.05,WeatherCatV1.11B39,2013-02-12 23:31:00,
2013-02-12 18:36:00,46.7,43.9,29.89,WNW,282,0.0,0.0,90,0.00,,,0.05,WeatherCatV1.11B39,2013-02-12 23:36:00,
2013-02-12 18:41:00,46.5,43.7,29.89,WNW,282,0.0,0.0,90,0.00,,,0.06,WeatherCatV1.11B39,2013-02-12 23:41:00,
2013-02-12 18:46:00,46.4,43.9,29.88,WNW,282,2.0,2.0,91,0.00,,,0.06,WeatherCatV1.11B39,2013-02-12 23:46:00,
2013-02-12 18:51:00,46.3,43.8,29.87,WNW,282,1.0,2.0,91,0.08,,,0.07,WeatherCatV1.11B39,2013-02-12 23:51:00,
2013-02-12 18:56:00,46.0,43.2,29.86,WNW,297,4.0,6.0,90,0.10,,,0.08,WeatherCatV1.11B39,2013-02-12 23:56:00,
2013-02-12 19:01:00,46.0,43.5,29.87,WNW,297,4.0,4.0,91,0.09,,,0.09,WeatherCatV1.11B39,2013-02-13 00:01:00,
2013-02-12 19:06:00,46.0,43.8,29.86,NW,311,2.0,5.0,92,0.09,,,0.09,WeatherCatV1.11B39,2013-02-13 00:06:00,
2013-02-12 19:11:00,46.0,43.8,29.86,North,355,0.0,2.0,92,0.06,,,0.10,WeatherCatV1.11B39,2013-02-13 00:11:00,
2013-02-12 19:16:00,46.0,43.8,29.88,WNW,282,6.0,7.0,92,0.06,,,0.10,WeatherCatV1.11B39,2013-02-13 00:16:00,
2013-02-12 19:21:00,46.0,43.8,29.88,West,277,7.0,7.0,92,0.10,,,0.11,WeatherCatV1.11B39,2013-02-13 00:21:00,
2013-02-12 19:26:00,46.0,43.5,29.90,WNW,295,1.0,2.0,91,0.06,,,0.11,WeatherCatV1.11B39,2013-02-13 00:26:00,
2013-02-12 19:31:00,45.9,43.4,29.90,WNW,295,0.0,0.0,91,0.04,,,0.11,WeatherCatV1.11B39,2013-02-13 00:31:00,
2013-02-12 19:36:00,45.9,43.4,29.90,WNW,295,0.0,0.0,91,0.00,,,0.11,WeatherCatV1.11B39,2013-02-13 00:36:00,
2013-02-12 19:41:00,45.8,43.3,29.88,NW,310,2.0,4.0,91,0.00,,,0.11,WeatherCatV1.11B39,2013-02-13 00:41:00,
2013-02-12 19:46:00,45.8,43.6,29.88,NW,310,0.0,1.0,92,0.00,,,0.11,WeatherCatV1.11B39,2013-02-13 00:46:00,
2013-02-12 19:51:00,45.6,43.4,29.88,NW,310,0.0,0.0,92,0.00,,,0.12,WeatherCatV1.11B39,2013-02-13 00:51:00,
2013-02-12 19:56:00,45.5,43.3,29.87,NW,310,0.0,0.0,92,0.00,,,0.12,WeatherCatV1.11B39,2013-02-13 00:56:00,
2013-02-12 20:01:00,45.4,43.2,29.87,NW,310,0.0,0.0,92,0.00,,,0.12,WeatherCatV1.11B39,2013-02-13 01:01:00,
2013-02-12 20:06:00,45.4,43.2,29.87,NW,310,0.0,0.0,92,0.00,,,0.12,WeatherCatV1.11B39,2013-02-13 01:06:00,
2013-02-12 20:11:00,45.2,43.0,29.87,NW,310,4.0,5.0,92,0.00,,,0.12,WeatherCatV1.11B39,2013-02-13 01:11:00,
2013-02-12 20:16:00,45.1,43.2,29.87,NW,310,0.0,0.0,93,0.00,,,0.12,WeatherCatV1.11B39,2013-02-13 01:16:00,
2013-02-12 20:21:00,44.9,43.0,29.88,NW,310,0.0,0.0,93,0.00,,,0.12,WeatherCatV1.11B39,2013-02-13 01:21:00,
2013-02-12 20:26:00,44.8,42.6,29.90,NW,310,2.0,4.0,92,0.00,,,0.12,WeatherCatV1.11B39,2013-02-13 01:26:00,
2013-02-12 20:31:00,44.8,42.9,29.91,NW,310,0.0,2.0,93,0.00,,,0.12,WeatherCatV1.11B39,2013-02-13 01:31:00,
2013-02-12 20:36:00,44.8,42.9,29.88,NW,319,1.0,4.0,93,0.00,,,0.13,WeatherCatV1.11B39,2013-02-13 01:36:00,
2013-02-12 20:41:00,44.8,42.9,29.88,NW,319,1.0,4.0,93,0.15,,,0.14,WeatherCatV1.11B39,2013-02-13 01:41:00,
2013-02-12 20:46:00,44.6,42.7,29.88,South,178,8.0,8.0,93,0.09,,,0.14,WeatherCatV1.11B39,2013-02-13 01:46:00,
2013-02-12 20:51:00,44.5,42.3,29.86,NE,49,3.0,5.0,92,0.14,,,0.16,WeatherCatV1.11B39,2013-02-13 01:51:00,
2013-02-12 20:56:00,44.3,42.1,29.89,SW,233,2.0,4.0,92,0.11,,,0.16,WeatherCatV1.11B39,2013-02-13 01:56:00,
2013-02-12 21:01:00,44.3,42.1,29.89,NE,38,1.0,5.0,92,0.16,,,0.17,WeatherCatV1.11B39,2013-02-13 02:01:00,
2013-02-12 21:06:00,44.2,42.0,29.88,North,5,4.0,4.0,92,0.21,,,0.19,WeatherCatV1.11B39,2013-02-13 02:06:00,
2013-02-12 21:11:00,44.2,42.3,29.85,SW,214,8.0,10.0,93,0.21,,,0.21,WeatherCatV1.11B39,2013-02-13 02:11:00,
2013-02-12 21:16:00,44.1,42.2,29.86,NNE,23,6.0,9.0,93,0.23,,,0.23,WeatherCatV1.11B39,2013-02-13 02:16:00,
2013-02-12 21:21:00,44.2,42.3,29.89,SW,221,9.0,10.0,93,0.11,,,0.24,WeatherCatV1.11B39,2013-02-13 02:21:00,
2013-02-12 21:26:00,44.3,42.4,29.86,NE,37,3.0,8.0,93,0.16,,,0.25,WeatherCatV1.11B39,2013-02-13 02:26:00,
2013-02-12 21:31:00,44.4,42.5,29.89,SW,221,4.0,7.0,93,0.09,,,0.26,WeatherCatV1.11B39,2013-02-13 02:31:00,
2013-02-12 21:36:00,44.5,42.6,29.87,NE,34,0.0,4.0,93,0.09,,,0.26,WeatherCatV1.11B39,2013-02-13 02:36:00,
2013-02-12 21:41:00,44.5,42.6,29.87,WSW,253,3.0,4.0,93,0.05,,,0.26,WeatherCatV1.11B39,2013-02-13 02:41:00,
2013-02-12 21:46:00,44.5,42.6,29.86,North,5,1.0,6.0,93,0.04,,,0.26,WeatherCatV1.11B39,2013-02-13 02:46:00,
2013-02-12 21:51:00,44.5,42.6,29.85,North,355,0.0,5.0,93,0.00,,,0.26,WeatherCatV1.11B39,2013-02-13 02:51:00,
2013-02-12 21:56:00,44.4,42.5,29.86,NE,53,1.0,6.0,93,0.00,,,0.26,WeatherCatV1.11B39,2013-02-13 02:56:00,
2013-02-12 22:01:00,44.3,42.4,29.86,NE,35,0.0,0.0,93,0.00,,,0.26,WeatherCatV1.11B39,2013-02-13 03:01:00,
2013-02-12 22:06:00,44.2,42.3,29.86,NNE,32,2.0,3.0,93,0.00,,,0.26,WeatherCatV1.11B39,2013-02-13 03:06:00,
2013-02-12 22:11:00,44.1,42.2,29.85,NW,320,4.0,4.0,93,0.00,,,0.26,WeatherCatV1.11B39,2013-02-13 03:11:00,
2013-02-12 22:16:00,44.1,42.2,29.85,NW,305,4.0,6.0,93,0.00,,,0.26,WeatherCatV1.11B39,2013-02-13 03:16:00,
2013-02-12 22:21:00,44.0,42.1,29.85,ENE,72,3.0,3.0,93,0.00,,,0.26,WeatherCatV1.11B39,2013-02-13 03:21:00,
2013-02-12 22:26:00,44.0,41.8,29.85,NNE,17,0.0,5.0,92,0.00,,,0.26,WeatherCatV1.11B39,2013-02-13 03:26:00,
2013-02-12 22:31:00,43.9,41.7,29.86,NNE,17,2.0,2.0,92,0.00,,,0.26,WeatherCatV1.11B39,2013-02-13 03:31:00,
2013-02-12 22:36:00,43.8,41.6,29.86,NNE,30,3.0,3.0,92,0.00,,,0.26,WeatherCatV1.11B39,2013-02-13 03:36:00,
2013-02-12 22:40:00,43.9,42.0,29.86,NNE,29,0.0,1.0,93,0.00,,,0.26,WeatherCatV1.11B39,2013-02-13 03:40:00,
2013-02-12 22:45:00,43.8,41.9,29.85,NE,48,1.0,4.0,93,0.00,,,0.26,WeatherCatV1.11B39,2013-02-13 03:45:00,
2013-02-12 22:50:00,43.9,41.7,29.85,NNE,32,2.0,3.0,92,0.00,,,0.26,WeatherCatV1.11B39,2013-02-13 03:50:00,
2013-02-12 22:55:00,44.0,41.8,29.85,NNE,19,3.0,6.0,92,0.00,,,0.26,WeatherCatV1.11B39,2013-02-13 03:55:00,
2013-02-12 23:00:00,44.0,41.8,29.84,NE,39,4.0,5.0,92,0.00,,,0.26,WeatherCatV1.11B39,2013-02-13 04:00:00,
2013-02-12 23:05:00,44.0,41.8,29.83,NNE,24,3.0,6.0,92,0.00,,,0.26,WeatherCatV1.11B39,2013-02-13 04:05:00,
2013-02-12 23:10:00,44.0,41.8,29.83,NNW,346,2.0,2.0,92,0.00,,,0.26,WeatherCatV1.11B39,2013-02-13 04:10:00,
2013-02-12 23:15:00,44.0,41.8,29.81,NNE,20,3.0,6.0,92,0.00,,,0.26,WeatherCatV1.11B39,2013-02-13 04:15:00,
2013-02-12 23:20:00,44.0,41.8,29.81,NE,35,3.0,9.0,92,0.00,,,0.26,WeatherCatV1.11B39,2013-02-13 04:20:00,
2013-02-12 23:25:00,44.0,41.8,29.82,East,80,3.0,12.0,92,0.00,,,0.26,WeatherCatV1.11B39,2013-02-13 04:25:00,
2013-02-12 23:30:00,43.9,41.7,29.81,North,355,4.0,10.0,92,0.00,,,0.26,WeatherCatV1.11B39,2013-02-13 04:30:00,
2013-02-12 23:35:00,43.9,41.4,29.81,North,350,6.0,10.0,91,0.00,,,0.26,WeatherCatV1.11B39,2013-02-13 04:35:00,
2013-02-12 23:40:00,43.9,41.4,29.82,NNW,334,5.0,7.0,91,0.00,,,0.26,WeatherCatV1.11B39,2013-02-13 04:40:00,
2013-02-12 23:45:00,43.9,41.2,29.82,NE,41,2.0,7.0,90,0.00,,,0.26,WeatherCatV1.11B39,2013-02-13 04:45:00,
2013-02-12 23:50:00,43.9,40.9,29.82,NNW,333,2.0,6.0,89,0.00,,,0.26,WeatherCatV1.11B39,2013-02-13 04:50:00,
2013-02-12 23:55:00,43.9,40.9,29.82,WNW,284,2.0,6.0,89,0.00,,,0.26,WeatherCatV1.11B39,2013-02-13 04:55:00,